KE6AFE Weather Reports


Display with metric or nautical units.
time (UTC)temp
F
wind
direction
speed
MPH
gust
MPH
rain 1hr
in
rain 24hr
in
rain mn
in
humidity
%
barometer
mb
20260503012936 66 2 0.0 0.0 0.00 0.00 0.00 56 1011.9
20260503011926 66 1 0.0 0.0 0.00 0.00 0.00 56 1012.0
20260503010916 67 1 0.0 0.0 0.00 0.00 0.00 56 1011.9
20260503005906 67 1 0.0 0.0 0.00 0.00 0.00 56 1012.0
20260503004856 67 1 0.0 0.0 0.00 0.00 0.00 55 1012.0
20260503003846 68 2 0.0 0.0 0.00 0.00 0.00 54 1012.0
20260503002836 68 1 0.0 0.0 0.00 0.00 0.00 54 1012.0
20260503001826 68 1 0.0 0.0 0.00 0.00 0.00 54 1012.0
20260503000816 68 1 0.0 0.0 0.00 0.00 0.00 53 1012.1
20260502235806 69 1 0.0 0.0 0.00 0.00 0.00 53 1012.2
20260502234756 69 1 0.0 0.0 0.00 0.00 0.00 54 1012.3
20260502233746 69 1 0.0 0.0 0.00 0.00 0.00 53 1012.4
20260502232736 69 1 0.0 0.0 0.00 0.00 0.00 54 1012.4
20260502231726 69 1 0.0 0.0 0.00 0.00 0.00 54 1012.5
20260502230716 69 1 0.0 0.0 0.00 0.00 0.00 54 1012.7
20260502225706 69 2 0.0 0.0 0.00 0.00 0.00 55 1012.9
20260502224656 68 1 0.0 0.0 0.00 0.00 0.00 55 1013.1
20260502223646 68 1 0.0 0.0 0.00 0.00 0.00 58 1013.2
20260502222636 67 1 0.0 0.0 0.00 0.00 0.00 57 1013.4
20260502221626 67 1 0.0 0.0 0.00 0.00 0.00 59 1013.5
20260502220616 67 2 0.0 0.0 0.00 0.00 0.00 58 1013.8
20260502215606 66 1 0.0 0.0 0.00 0.00 0.00 59 1013.8
20260502214556 66 1 0.0 0.0 0.00 0.00 0.00 61 1014.0
20260502213546 65 2 0.0 0.0 0.00 0.00 0.00 61 1014.1
20260502212536 65 1 0.0 0.0 0.00 0.00 0.00 63 1014.1
20260502211526 64 2 0.0 0.0 0.00 0.00 0.00 63 1014.1
20260502210516 64 2 0.0 0.0 0.00 0.00 0.00 63 1014.1
20260502205506 64 2 0.0 0.0 0.00 0.00 0.00 64 1014.3
20260502204456 63 2 0.0 0.0 0.00 0.00 0.00 65 1014.4
20260502203446 63 2 0.0 0.0 0.00 0.00 0.00 65 1014.6
20260502202436 63 3 0.0 0.0 0.00 0.00 0.00 66 1014.7
20260502201426 62 3 0.0 0.0 0.00 0.00 0.00 66 1014.9
20260502200416 62 2 0.0 0.0 0.00 0.00 0.00 67 1015.0
20260502195406 62 3 0.0 0.0 0.00 0.00 0.00 67 1015.2
20260502194356 62 2 0.0 0.0 0.00 0.00 0.00 67 1015.2
20260502193346 62 2 0.0 0.0 0.00 0.00 0.00 68 1015.3
20260502192336 61 2 0.0 0.0 0.00 0.00 0.00 68 1015.3
20260502191326 61 2 0.0 0.0 0.00 0.00 0.00 69 1015.3
20260502190316 61 2 0.0 0.0 0.00 0.00 0.00 70 1015.3
20260502185306 61 2 0.0 0.0 0.00 0.00 0.00 70 1015.3
20260502184256 61 2 0.0 0.0 0.00 0.00 0.00 70 1015.3
20260502183246 60 2 0.0 0.0 0.00 0.00 0.00 71 1015.2
20260502182236 60 1 0.0 0.0 0.00 0.00 0.00 70 1015.3
20260502181226 60 1 0.0 0.0 0.00 0.00 0.00 70 1015.3
20260502180216 60 2 0.0 0.0 0.00 0.00 0.00 70 1015.2
20260502170116 58 1 0.0 0.0 0.00 0.00 0.00 73 1015.0
20260502164056 57 1 0.0 0.0 0.00 0.00 0.00 74 1015.0
20260502163046 57 1 0.0 0.0 0.00 0.00 0.00 75 1014.9
20260502162036 57 1 0.0 0.0 0.00 0.00 0.00 75 1014.9
20260502161026 57 2 0.0 0.0 0.00 0.00 0.00 75 1014.8
20260502151936 57 1 0.0 0.0 0.00 0.00 0.00 73 1014.4
20260502150926 57 1 0.0 0.0 0.00 0.00 0.00 73 1014.3
20260502130726 56 1 0.0 0.0 0.00 0.00 0.00 75 1013.7
20260502123656 56 1 0.0 0.0 0.00 0.00 0.00 75 1013.7
20260502122646 56 1 0.0 0.0 0.00 0.00 0.00 76 1013.6
20260502121636 56 1 0.0 0.0 0.00 0.00 0.00 75 1013.5
20260502120626 57 2 0.0 0.0 0.00 0.00 0.00 75 1013.4
20260502115616 57 1 0.0 0.0 0.00 0.00 0.00 75 1013.4
20260502114606 57 0 0.0 0.0 0.00 0.00 0.00 75 1013.4
20260502113556 57 1 0.0 0.0 0.00 0.00 0.00 75 1013.4
20260502112546 57 1 0.0 0.0 0.00 0.00 0.00 74 1013.4
20260502111536 57 0 0.0 0.0 0.00 0.00 0.00 74 1013.4
20260502110526 57 0 0.0 0.0 0.00 0.00 0.00 74 1013.3
20260502105516 57 1 0.0 0.0 0.00 0.00 0.00 74 1013.5
20260502104506 57 0 0.0 0.0 0.00 0.00 0.00 73 1013.5
20260502103456 57 1 0.0 0.0 0.00 0.00 0.00 73 1013.5
20260502102446 57 1 0.0 0.0 0.00 0.00 0.00 73 1013.5
20260502101436 57 1 0.0 0.0 0.00 0.00 0.00 73 1013.6
20260502100426 57 0 0.0 0.0 0.00 0.00 0.00 73 1013.7
20260502091336 57 0 0.0 0.0 0.00 0.00 0.00 73 1014.1
20260502090326 57 1 0.0 0.0 0.00 0.00 0.00 74 1014.3
20260502071136 57 1 0.0 0.0 0.00 0.00 0.00 72 1014.6
20260502070126 58 1 0.0 0.0 0.00 0.00 0.00 72 1014.6
20260502065116 58 1 0.0 0.0 0.00 0.00 0.00 72 1014.6
20260502064106 57 1 0.0 0.0 0.00 0.00 0.00 71 1014.7
20260502063056 58 1 0.0 0.0 0.00 0.00 0.00 70 1014.6
20260502062046 58 1 0.0 0.0 0.00 0.00 0.00 70 1014.7
20260502061036 58 2 0.0 0.0 0.00 0.00 0.00 70 1014.8
20260502060026 58 1 0.0 0.0 0.00 0.00 0.00 70 1014.8
20260502055016 58 1 0.0 0.0 0.00 0.00 0.00 70 1014.9
20260502054006 59 1 0.0 0.0 0.00 0.00 0.00 69 1015.0
20260502052956 59 1 0.0 0.0 0.00 0.00 0.00 69 1015.0
20260502051946 59 1 0.0 0.0 0.00 0.00 0.00 69 1015.0
20260502050936 59 1 0.0 0.0 0.00 0.00 0.00 69 1014.9
20260502045926 60 1 0.0 0.0 0.00 0.00 0.00 68 1015.0
20260502044916 60 1 0.0 0.0 0.00 0.00 0.00 68 1014.9
20260502043906 60 1 0.0 0.0 0.00 0.00 0.00 68 1014.8
20260502042856 61 1 0.0 0.0 0.00 0.00 0.00 67 1014.7
20260502041846 61 1 0.0 0.0 0.00 0.00 0.00 65 1014.6
20260502040836 62 1 0.0 0.0 0.00 0.00 0.00 65 1014.5
20260502035826 62 0 0.0 0.0 0.00 0.00 0.00 64 1014.4
20260502034816 63 0 0.0 0.0 0.00 0.00 0.00 63 1014.2
20260502033806 63 1 0.0 0.0 0.00 0.00 0.00 63 1014.1
20260502032756 63 1 0.0 0.0 0.00 0.00 0.00 63 1014.1
20260502031746 64 1 0.0 0.0 0.00 0.00 0.00 63 1014.0
20260502030736 64 1 0.0 0.0 0.00 0.00 0.00 62 1014.0
20260502025726 64 1 0.0 0.0 0.00 0.00 0.00 61 1013.9
20260502024716 65 0 0.0 0.0 0.00 0.00 0.00 60 1013.9
20260502023706 65 0 0.0 0.0 0.00 0.00 0.00 60 1013.9
20260502022656 66 1 0.0 0.0 0.00 0.00 0.00 58 1013.9
20260502021646 67 0 0.0 0.0 0.00 0.00 0.00 57 1013.8
20260502020636 67 0 0.0 0.0 0.00 0.00 0.00 56 1013.8
20260502015626 68 0 0.0 0.0 0.00 0.00 0.00 55 1013.9
20260502014616 69 0 0.0 0.0 0.00 0.00 0.00 55 1013.8
20260502013606 69 0 0.0 0.0 0.00 0.00 0.00 53 1013.9